Tracking 19280 objects as of 15-Nov-2018
HD Live streaming from Space Station
objects crossing your sky now

ZHEDA PIXING 1C

Track ZHEDA PIXING 1C now!
10-day predictions
ZHEDA PIXING 1C is classified as:


NORAD ID: 37167
Int'l Code: 2010-047C
Perigee: 617.9 km
Apogee: 651.0 km
Inclination: 97.7 °
Period: 97.3 minutes
Semi major axis: 7005 km
RCS: 0.149 m2 (medium)
Launch date: September 22, 2010
Source: People's Republic of China (PRC)
Launch site: Jiuquan Satellite Launch Center, China (JSC)
aabbcc
Your satellite tracking list
Your tracking list is empty




NASA's NSSDC Master Catalog

Two Line Element Set (TLE):
1 37167U 10047C   18318.98277409  .00000127  00000-0  23041-4 0  9997
2 37167  97.6725 320.1171 0023613 355.4544   4.6469 14.80634231439852
Source of the keplerian elements: AFSPC